Location: Vale
(43.9820°N, 117.2370°W)
Time: 23:09:49
(UTC-06:00)

Envisat - Visible Passes

Search period start: 23 June 2018 00:00
Search period end: 03 July 2018 00:00
Orbit: 764 x 766 km, 98.2° (Epoch: 23 June)

Date Brightness Start Highest point End Pass type
(mag) Time Alt. Az. Time Alt. Az. Time Alt. Az.
23 Jun 5.7 22:33:09 10° WSW 22:35:32 13° W 22:37:56 10° WNW visible
26 Jun 5.6 22:21:01 10° SW 22:24:14 17° W 22:27:29 10° NW visible
29 Jun 5.4 22:09:09 10° SW 22:12:58 21° W 22:16:47 10° NW visible
01 Jul 5.8 22:36:57 10° WSW 22:38:50 12° W 22:40:45 10° WNW visible
